Weather Roundup
Issued by NWS

Home | Current Version | Previous Version | Text Only | Print | Product List | Glossary On
Versions: 1 2 3 4 5 6 7 8 9 10 11 12 13 14 15 16 17 18 19 20 21 22 23 24 25 26 27 28 29 30 31 32 33 34 35 36 37 38 39 40 41 42 43 44 45 46 47 48 49 50
832
NZUS93 KARX 241810
HRRWXR

CURRENT HOURLY OBSERVATIONS ACROSS
MUCH OF THE UPPER MISSISSIPPI VALLEY
NATIONAL WEATHER SERVICE LA CROSSE WI
1200 PM CST SAT FEB 24 2018


...SOUTHEAST MINNESOTA...


CITY           SKY/WX    TMP DP  RH WIND       PRES   REMARKS
ROCHESTER      CLOUDY    27  24  89 E12       29.91F FOG     WCI  17
ROCHESTER/MAYO CLOUDY    28  24  85 E9        29.92F WCI  19
WINONA         CLOUDY    32  27  80 SE9       29.97F WCI  24
AUSTIN         PTSUNNY   27  25  93 E15       29.88F WCI  15
ALBERT LEA     CLOUDY    25  25 100 E9        29.88F WCI  15
DODGE CENTER   FAIR      27  21  80 E9        29.91F FOG     WCI  17
PRESTON        CLOUDY    28  24  83 E12       29.92F WCI  18
OWATONNA       FAIR      27  21  80 E14       29.90F FOG     WCI  15
FARIBAULT      FAIR      21  21 100 NE9       29.93F FOG     WCI  11
$$

...ELSEWHERE IN MINNESOTA...


CITY           SKY/WX    TMP DP  RH WIND       PRES   REMARKS
MINNEAPOLIS    CLOUDY    26  20  77 E8        30.00F WCI  18
INTNL FALLS    FAIR      24  10  55 SE3       30.00F
DULUTH         FAIR      23  11  60 S7        30.05F WCI  15
RED WING       PTSUNNY   23  19  86 SE7       29.99F FOG     WCI  15
REDWOOD FALLS  CLOUDY    18  15  88 VRB5      29.94F FOG     WCI  11
MANKATO        LGT SNOW  24  19  81 E9        29.92F WCI  14
WORTHINGTON    SNOW      19  18  93 NE10      29.85F VSB 1/2 WCI   8
FAIRMONT       LGT SNOW  22  16  78 NE7       29.90F WCI  13
$$

...SOUTHWEST WISCONSIN...


CITY           SKY/WX    TMP DP  RH WIND       PRES   REMARKS
LA CROSSE      PTSUNNY   34  25  69 SE10G21   29.97F WCI  26
PRAIRIE DU CHI CLOUDY    33  26  74 E14G24    29.96F WCI  24
BOSCOBEL       PTSUNNY   37  27  67 E9        29.98F WCI  30
LONE ROCK      CLOUDY    33  28  81 E18       29.99F HAZE    WCI  22
PLATTEVILLE    CLOUDY    32  31  96 E17G25    29.97F WCI  21
FORT MC COY    PTSUNNY   32  26  78 E17       29.99F WCI  21
CAMP DOUGLAS   PTSUNNY   34  27  75 E14       30.00F WCI  24
MAUSTON-NEW LI FAIR      34  26  72 E10G17    30.00F WCI  26
VIROQUA        MOCLDY    32  29  87 E17G24    29.93F WCI  21
WIS DELLS      CLOUDY    35  27  73 E13G21    30.01F WCI  26
$$

...ELSEWHERE IN WISCONSIN...


CITY           SKY/WX    TMP DP  RH WIND       PRES   REMARKS
MILWAUKEE      CLOUDY    37  31  78 E13       30.09F WCI  29
MADISON        PTSUNNY   34  27  75 SE16G25   30.04F WCI  24
GREEN BAY      FAIR      37  26  64 E9        30.14F WCI  30
EAU CLAIRE     FAIR      27  23  85 NE10      30.00F FOG     WCI  17
BLACK RVR FLS  FAIR      35  24  64 E9G16     30.00F WCI  27
MEDFORD        PTSUNNY  N/A N/A N/A SE9G16    30.04F
WAUSAU         FAIR      32  22  66 SE14      30.05F WCI  22
WIS RAPIDS     FAIR      34  22  61 E15G21    30.05F WCI  24
MARSHFIELD     FAIR      30  24  78 E13       30.02F WCI  20
RICE LAKE      FAIR      22  22  96 CALM      30.04F
$$

...NORTHEAST IOWA...


CITY           SKY/WX    TMP DP  RH WIND       PRES   REMARKS
WATERLOO       CLOUDY    32  29  88 SE18      29.91F WCI  20
DUBUQUE        CLOUDY    32  27  81 SE16      29.96F HAZE    WCI  21
DECORAH        CLOUDY    32  28  86 SE16      29.90F WCI  21
MASON CITY     LGT SNOW  28  27  96 SE14      29.90F FOG     WCI  17
CHARLES CITY   CLOUDY    32  32 100 SE17      29.90F WCI  21
OELWEIN        PTSUNNY   32  32 100 SE26      29.89F WCI  18
$$

...ELSEWHERE IN IOWA...


CITY           SKY/WX    TMP DP  RH WIND       PRES   REMARKS
DES MOINES     DRIZZLE   33  31  92 SE10      29.83F WCI  25
IOWA CITY      LGT RAIN  36  33  89 E13G21    29.94F FOG     WCI  27
FORT DODGE     MIX PCPN  31  29  92 SE8       29.85F FOG     WCI  23
MARSHALLTOWN   CLOUDY    33  32  96 SE18      29.85F FOG     WCI  22
CEDAR RAPIDS   CLOUDY    35  30  82 SE20G29   29.90F HAZE    WCI  24
$$

...NORTHERN ILLINOIS...


CITY           SKY/WX    TMP DP  RH WIND       PRES   REMARKS
CHICAGO-OHARE  CLOUDY    39  31  72 E14       30.03F WCI  31
CHICAGO-MIDWAY CLOUDY    39  32  76 E12G21    30.03F WCI  32
MOLINE         LGT RAIN  37  34  89 E18       29.95F FOG     WCI  27
ROCKFORD       CLOUDY    36  29  75 E16       30.03F WCI  26
PEORIA         LGT RAIN  40  38  93 E12       29.95F FOG     WCI  33
$$

NOTE: "FAIR" INDICATES FEW OR NO CLOUDS BELOW 12,000 FEET WITH NO
SIGNIFICANT WEATHER AND/OR OBSTRUCTIONS TO VISIBILITY. WIND
SPEEDS ARE IN MILES-PER-HOUR.




USA.gov is the U.S. government's official web portal to all federal, state and local government web resources and services.